Time,TemperatureF,DewpointF,PressureIn,WindDirection,WindDirectionDegrees,WindSpeedMPH,WindSpeedGustMPH,Humidity,HourlyPrecipIn,Conditions,Clouds,dailyrainin,SoftwareType,DateUTC
2013-02-14 00:03:00,40.9,40.0,30.25,South,174,0.0,0.0,98,0.00,,,0.00,weatherlink.com 1.10,2013-02-14 08:03:00,
2013-02-14 00:18:00,39.8,39.0,30.25,South,173,0.0,0.0,97,0.00,,,0.00,weatherlink.com 1.10,2013-02-14 08:18:00,
2013-02-14 00:33:00,40.2,40.0,30.26,South,174,0.0,0.0,99,0.00,,,0.00,weatherlink.com 1.10,2013-02-14 08:33:00,
2013-02-14 00:48:00,39.2,39.0,30.25,South,173,0.0,0.0,98,0.00,,,0.00,weatherlink.com 1.10,2013-02-14 08:48:00,
2013-02-14 01:03:00,38.2,38.0,30.25,South,173,0.0,0.0,98,0.00,,,0.00,weatherlink.com 1.10,2013-02-14 09:03:00,
2013-02-14 01:18:00,37.7,37.0,30.25,South,174,0.0,0.0,98,0.00,,,0.00,weatherlink.com 1.10,2013-02-14 09:18:00,
2013-02-14 01:33:00,38.6,38.0,30.25,South,173,0.0,0.0,99,0.00,,,0.00,weatherlink.com 1.10,2013-02-14 09:33:00,
2013-02-14 01:48:00,38.2,38.0,30.25,South,174,0.0,0.0,99,0.00,,,0.00,weatherlink.com 1.10,2013-02-14 09:48:00,
2013-02-14 02:03:00,37.1,37.0,30.25,South,174,0.0,0.0,98,0.00,,,0.00,weatherlink.com 1.10,2013-02-14 10:03:00,
2013-02-14 02:18:00,36.2,36.0,30.25,South,173,0.0,0.0,98,0.00,,,0.00,weatherlink.com 1.10,2013-02-14 10:18:00,
2013-02-14 02:33:00,36.2,36.0,30.25,South,174,0.0,0.0,98,0.00,,,0.00,weatherlink.com 1.10,2013-02-14 10:33:00,
2013-02-14 02:48:00,36.1,36.0,30.25,South,173,0.0,0.0,99,0.00,,,0.00,weatherlink.com 1.10,2013-02-14 10:48:00,
2013-02-14 03:03:00,35.9,35.0,30.24,South,174,0.0,0.0,98,0.00,,,0.00,weatherlink.com 1.10,2013-02-14 11:03:00,
2013-02-14 03:18:00,35.9,36.0,30.24,South,173,0.0,0.0,99,0.00,,,0.00,weatherlink.com 1.10,2013-02-14 11:18:00,
2013-02-14 03:33:00,35.6,35.0,30.24,South,173,0.0,0.0,99,0.00,,,0.00,weatherlink.com 1.10,2013-02-14 11:33:00,
2013-02-14 03:48:00,35.8,36.0,30.24,South,173,0.0,0.0,99,0.00,,,0.00,weatherlink.com 1.10,2013-02-14 11:48:00,
2013-02-14 04:03:00,35.9,36.0,30.24,South,174,0.0,0.0,99,0.00,,,0.00,weatherlink.com 1.10,2013-02-14 12:03:00,
2013-02-14 04:18:00,35.5,35.0,30.24,South,173,0.0,0.0,99,0.00,,,0.00,weatherlink.com 1.10,2013-02-14 12:18:00,
2013-02-14 04:33:00,35.3,35.0,30.24,South,173,0.0,0.0,99,0.00,,,0.00,weatherlink.com 1.10,2013-02-14 12:33:00,
2013-02-14 04:48:00,36.1,36.0,30.24,South,173,0.0,0.0,100,0.00,,,0.00,weatherlink.com 1.10,2013-02-14 12:48:00,
2013-02-14 05:03:00,35.6,35.0,30.24,South,173,0.0,0.0,99,0.00,,,0.00,weatherlink.com 1.10,2013-02-14 13:03:00,
2013-02-14 05:18:00,36.3,36.0,30.25,South,173,0.0,0.0,99,0.00,,,0.00,weatherlink.com 1.10,2013-02-14 13:18:00,
2013-02-14 05:33:00,36.4,36.0,30.25,South,173,0.0,0.0,99,0.00,,,0.00,weatherlink.com 1.10,2013-02-14 13:33:00,
2013-02-14 05:48:00,35.8,36.0,30.25,South,173,1.0,3.0,99,0.00,,,0.00,weatherlink.com 1.10,2013-02-14 13:48:00,
2013-02-14 06:03:00,36.0,36.0,30.25,South,173,2.0,3.0,99,0.00,,,0.00,weatherlink.com 1.10,2013-02-14 14:03:00,
2013-02-14 06:18:00,35.6,35.0,30.26,South,173,1.0,2.0,99,0.00,,,0.00,weatherlink.com 1.10,2013-02-14 14:18:00,
2013-02-14 06:33:00,35.6,35.0,30.26,South,174,2.0,4.0,99,0.00,,,0.00,weatherlink.com 1.10,2013-02-14 14:33:00,
2013-02-14 06:48:00,35.2,35.0,30.26,South,173,1.0,3.0,99,0.00,,,0.00,weatherlink.com 1.10,2013-02-14 14:48:00,
2013-02-14 07:03:00,35.1,35.0,30.26,South,173,1.0,2.0,99,0.00,,,0.00,weatherlink.com 1.10,2013-02-14 15:03:00,
2013-02-14 07:18:00,35.3,35.0,30.27,South,173,2.0,3.0,99,0.00,,,0.00,weatherlink.com 1.10,2013-02-14 15:18:00,
2013-02-14 07:33:00,35.5,35.0,30.27,South,173,1.0,2.0,99,0.00,,,0.00,weatherlink.com 1.10,2013-02-14 15:33:00,
2013-02-14 07:48:00,35.7,36.0,30.27,South,173,1.0,2.0,100,0.00,,,0.00,weatherlink.com 1.10,2013-02-14 15:48:00,
2013-02-14 08:03:00,36.7,37.0,30.28,South,173,1.0,2.0,100,0.00,,,0.00,weatherlink.com 1.10,2013-02-14 16:03:00,
2013-02-14 08:18:00,38.8,39.0,30.28,South,173,1.0,2.0,100,0.00,,,0.00,weatherlink.com 1.10,2013-02-14 16:18:00,
2013-02-14 08:33:00,40.7,41.0,30.29,South,174,0.0,0.0,100,0.00,,,0.00,weatherlink.com 1.10,2013-02-14 16:33:00,
2013-02-14 08:49:00,42.6,43.0,30.29,South,174,1.0,3.0,100,0.00,,,0.00,weatherlink.com 1.10,2013-02-14 16:49:00,
2013-02-14 09:04:00,44.4,44.0,30.29,South,174,1.0,2.0,100,0.00,,,0.00,weatherlink.com 1.10,2013-02-14 17:04:00,
2013-02-14 09:19:00,45.9,46.0,30.28,South,174,0.0,1.0,99,0.00,,,0.00,weatherlink.com 1.10,2013-02-14 17:19:00,
2013-02-14 09:34:00,46.2,46.0,30.28,South,174,3.0,3.0,98,0.00,,,0.00,weatherlink.com 1.10,2013-02-14 17:34:00,
2013-02-14 09:49:00,47.3,47.0,30.27,South,174,2.0,3.0,97,0.00,,,0.00,weatherlink.com 1.10,2013-02-14 17:49:00,
2013-02-14 10:04:00,48.2,47.0,30.27,South,174,2.0,2.0,94,0.00,,,0.00,weatherlink.com 1.10,2013-02-14 18:04:00,
2013-02-14 10:19:00,50.2,49.0,30.27,South,174,1.0,3.0,94,0.00,,,0.00,weatherlink.com 1.10,2013-02-14 18:19:00,
2013-02-14 10:34:00,52.1,49.0,30.26,South,175,1.0,3.0,89,0.00,,,0.00,weatherlink.com 1.10,2013-02-14 18:34:00,
2013-02-14 10:49:00,52.8,49.0,30.26,South,174,2.0,3.0,86,0.00,,,0.00,weatherlink.com 1.10,2013-02-14 18:49:00,
2013-02-14 11:04:00,54.3,49.0,30.26,South,174,3.0,4.0,81,0.00,,,0.00,weatherlink.com 1.10,2013-02-14 19:04:00,
2013-02-14 11:19:00,54.2,50.0,30.25,South,174,2.0,4.0,84,0.00,,,0.00,weatherlink.com 1.10,2013-02-14 19:19:00,
2013-02-14 11:34:00,55.3,50.0,30.25,South,174,1.0,3.0,82,0.00,,,0.00,weatherlink.com 1.10,2013-02-14 19:34:00,
2013-02-14 11:49:00,56.4,49.0,30.25,South,174,4.0,5.0,75,0.00,,,0.00,weatherlink.com 1.10,2013-02-14 19:49:00,
2013-02-14 12:04:00,58.2,50.0,30.24,South,174,4.0,6.0,75,0.00,,,0.00,weatherlink.com 1.10,2013-02-14 20:04:00,
2013-02-14 12:19:00,58.7,50.0,30.23,South,174,2.0,6.0,74,0.00,,,0.00,weatherlink.com 1.10,2013-02-14 20:19:00,
2013-02-14 12:34:00,59.1,48.0,30.24,South,174,1.0,3.0,67,0.00,,,0.00,weatherlink.com 1.10,2013-02-14 20:34:00,
2013-02-14 12:49:00,60.2,50.0,30.23,South,174,5.0,5.0,69,0.00,,,0.00,weatherlink.com 1.10,2013-02-14 20:49:00,
2013-02-14 13:04:00,58.5,47.0,30.23,South,174,6.0,10.0,66,0.00,,,0.00,weatherlink.com 1.10,2013-02-14 21:04:00,
2013-02-14 13:19:00,58.9,47.0,30.23,South,174,5.0,7.0,65,0.00,,,0.00,weatherlink.com 1.10,2013-02-14 21:19:00,
2013-02-14 13:34:00,59.2,48.0,30.21,South,174,4.0,5.0,67,0.00,,,0.00,weatherlink.com 1.10,2013-02-14 21:34:00,
2013-02-14 13:49:00,59.2,46.0,30.21,South,174,3.0,5.0,63,0.00,,,0.00,weatherlink.com 1.10,2013-02-14 21:49:00,
2013-02-14 14:04:00,59.3,47.0,30.21,South,174,3.0,5.0,63,0.00,,,0.00,weatherlink.com 1.10,2013-02-14 22:04:00,
2013-02-14 14:19:00,59.7,47.0,30.21,South,174,3.0,6.0,64,0.00,,,0.00,weatherlink.com 1.10,2013-02-14 22:19:00,
2013-02-14 14:34:00,59.4,47.0,30.20,South,174,3.0,5.0,64,0.00,,,0.00,weatherlink.com 1.10,2013-02-14 22:34:00,
2013-02-14 14:50:00,59.2,47.0,30.20,South,174,4.0,6.0,64,0.00,,,0.00,weatherlink.com 1.10,2013-02-14 22:50:00,
2013-02-14 15:05:00,58.7,47.0,30.20,South,174,4.0,6.0,66,0.00,,,0.00,weatherlink.com 1.10,2013-02-14 23:05:00,
2013-02-14 15:20:00,58.7,49.0,30.21,South,174,4.0,6.0,71,0.00,,,0.00,weatherlink.com 1.10,2013-02-14 23:20:00,
2013-02-14 15:35:00,57.8,50.0,30.21,South,174,3.0,8.0,74,0.00,,,0.00,weatherlink.com 1.10,2013-02-14 23:35:00,
2013-02-14 15:50:00,58.0,48.0,30.21,South,174,3.0,4.0,70,0.00,,,0.00,weatherlink.com 1.10,2013-02-14 23:50:00,
2013-02-14 16:05:00,58.2,49.0,30.20,South,173,0.0,3.0,71,0.00,,,0.00,weatherlink.com 1.10,2013-02-15 00:05:00,
2013-02-14 16:20:00,58.5,48.0,30.20,South,173,1.0,2.0,69,0.00,,,0.00,weatherlink.com 1.10,2013-02-15 00:20:00,
2013-02-14 16:35:00,58.9,49.0,30.20,South,174,2.0,5.0,69,0.00,,,0.00,weatherlink.com 1.10,2013-02-15 00:35:00,
2013-02-14 16:50:00,59.6,49.0,30.20,South,174,1.0,2.0,67,0.00,,,0.00,weatherlink.com 1.10,2013-02-15 00:50:00,
2013-02-14 17:05:00,59.0,49.0,30.20,South,173,2.0,3.0,70,0.00,,,0.00,weatherlink.com 1.10,2013-02-15 01:05:00,
2013-02-14 17:20:00,57.0,50.0,30.20,South,174,1.0,4.0,76,0.00,,,0.00,weatherlink.com 1.10,2013-02-15 01:20:00,
2013-02-14 17:35:00,54.6,49.0,30.20,South,174,1.0,3.0,82,0.00,,,0.00,weatherlink.com 1.10,2013-02-15 01:35:00,
2013-02-14 17:50:00,52.0,48.0,30.20,South,174,1.0,2.0,85,0.00,,,0.00,weatherlink.com 1.10,2013-02-15 01:50:00,
2013-02-14 18:05:00,50.0,47.0,30.20,South,174,1.0,1.0,88,0.00,,,0.00,weatherlink.com 1.10,2013-02-15 02:05:00,
2013-02-14 18:20:00,48.6,45.0,30.21,South,174,1.0,3.0,88,0.00,,,0.00,weatherlink.com 1.10,2013-02-15 02:20:00,
2013-02-14 18:35:00,47.1,44.0,30.21,South,174,1.0,2.0,88,0.00,,,0.00,weatherlink.com 1.10,2013-02-15 02:35:00,
2013-02-14 18:50:00,45.9,43.0,30.21,South,174,2.0,2.0,89,0.00,,,0.00,weatherlink.com 1.10,2013-02-15 02:50:00,
2013-02-14 19:05:00,45.1,42.0,30.20,South,173,1.0,2.0,89,0.00,,,0.00,weatherlink.com 1.10,2013-02-15 03:05:00,
2013-02-14 19:20:00,44.2,42.0,30.20,South,174,1.0,1.0,91,0.00,,,0.00,weatherlink.com 1.10,2013-02-15 03:20:00,
2013-02-14 19:35:00,43.2,41.0,30.21,South,174,1.0,1.0,90,0.00,,,0.00,weatherlink.com 1.10,2013-02-15 03:35:00,
2013-02-14 19:50:00,42.8,41.0,30.21,South,173,1.0,2.0,92,0.00,,,0.00,weatherlink.com 1.10,2013-02-15 03:50:00,
2013-02-14 20:05:00,42.5,40.0,30.21,South,173,2.0,3.0,92,0.00,,,0.00,weatherlink.com 1.10,2013-02-15 04:05:00,
2013-02-14 20:20:00,41.9,40.0,30.21,South,173,1.0,2.0,91,0.00,,,0.00,weatherlink.com 1.10,2013-02-15 04:20:00,
2013-02-14 20:35:00,41.8,40.0,30.21,South,173,2.0,3.0,93,0.00,,,0.00,weatherlink.com 1.10,2013-02-15 04:35:00,
2013-02-14 20:50:00,41.7,40.0,30.21,South,174,2.0,3.0,93,0.00,,,0.00,weatherlink.com 1.10,2013-02-15 04:50:00,
2013-02-14 21:05:00,41.2,40.0,30.22,South,173,2.0,2.0,94,0.00,,,0.00,weatherlink.com 1.10,2013-02-15 05:05:00,
2013-02-14 21:20:00,40.8,40.0,30.22,South,173,2.0,3.0,95,0.00,,,0.00,weatherlink.com 1.10,2013-02-15 05:20:00,
2013-02-14 21:35:00,41.6,40.0,30.22,South,173,1.0,2.0,95,0.00,,,0.00,weatherlink.com 1.10,2013-02-15 05:35:00,
2013-02-14 21:50:00,41.1,40.0,30.22,South,173,2.0,3.0,94,0.00,,,0.00,weatherlink.com 1.10,2013-02-15 05:50:00,
2013-02-14 22:05:00,41.2,40.0,30.22,South,173,1.0,3.0,95,0.00,,,0.00,weatherlink.com 1.10,2013-02-15 06:05:00,
2013-02-14 22:20:00,41.0,40.0,30.23,South,173,2.0,2.0,95,0.00,,,0.00,weatherlink.com 1.10,2013-02-15 06:20:00,
2013-02-14 22:35:00,40.7,39.0,30.23,South,173,0.0,2.0,95,0.00,,,0.00,weatherlink.com 1.10,2013-02-15 06:35:00,
2013-02-14 22:50:00,41.3,40.0,30.23,South,174,2.0,3.0,95,0.00,,,0.00,weatherlink.com 1.10,2013-02-15 06:50:00,
2013-02-14 23:05:00,40.9,40.0,30.23,South,173,1.0,2.0,95,0.00,,,0.00,weatherlink.com 1.10,2013-02-15 07:05:00,
2013-02-14 23:20:00,40.2,39.0,30.23,South,173,1.0,2.0,96,0.00,,,0.00,weatherlink.com 1.10,2013-02-15 07:20:00,
2013-02-14 23:35:00,39.7,38.0,30.23,South,173,2.0,3.0,94,0.00,,,0.00,weatherlink.com 1.10,2013-02-15 07:35:00,
2013-02-14 23:50:00,39.8,39.0,30.23,South,173,2.0,2.0,96,0.00,,,0.00,weatherlink.com 1.10,2013-02-15 07:50:00,